Regional Weather Roundup
Issued by NWS

Home | Current Version | Previous Version | Text Only | Print | Product List | Glossary Off
Versions: 1 2 3 4 5 6 7 8 9 10 11 12 13 14 15 16 17 18 19 20 21 22 23 24 25 26 27 28 29 30 31 32 33 34 35 36 37 38 39 40 41 42 43 44 45 46 47 48 49 50

000
ASUS43 KMKX 200221
RWRWI

WISCONSIN REGIONAL WEATHER ROUNDUP
NATIONAL WEATHER SERVICE MILWAUKEE/SULLIVAN WI
900 PM CDT SAT AUG 19 2017

NOTE: "FAIR" INDICATES FEW OR NO CLOUDS BELOW 12,000 FEET WITH NO
SIGNIFICANT WEATHER AND/OR OBSTRUCTIONS TO VISIBILITY.

WIZ001-002-006>008-014>016-023>028-200300-
NORTHWEST WISCONSIN

CITY           SKY/WX    TMP DP  RH WIND       PRES   REMARKS
SUPERIOR ARPT    N/A     67  63  86 S6        29.85R
ASHLAND        CLEAR     66  62  87 SW8       29.88R
HAYWARD        CLEAR     64  60  87 CALM      29.91R
SIREN          CLEAR     66  62  85 S3        29.90R
CUMBERLAND     CLEAR     63  59  88 CALM      29.92R
RICE LAKE      CLEAR     64  60  86 S3        29.93R
CHETEK           N/A     65  63  90 CALM      29.92R
LADYSMITH      CLEAR     68  61  77 S3        29.94R
EAU CLAIRE     PTCLDY    67  62  84 CALM      29.91R
MENOMONIE      CLEAR     67  63  86 SE3       29.91R
NEW RICHMOND   CLEAR     68  61  78 SE3       29.90S
OSCEOLA        CLEAR     67  61  81 SE5       29.92R
$$

WIZ003>005-009-010-017-018-200300-
NORTH CENTRAL WISCONSIN

CITY           SKY/WX    TMP DP  RH WIND       PRES   REMARKS
MANITOWISH WTR CLEAR     61  61 100 CALM      29.92R
ARBOR VITAE    CLEAR     64  60  86 CALM      29.93R
WOODRUFF       CLEAR     64  60  86 CALM      29.93R
RHINELANDER    CLEAR     63  61  93 CALM      29.94S
EAGLE RIVER    CLEAR     62  60  91 CALM      29.93R
LAND O LAKES   CLEAR     60  59  96 CALM      29.94R
PHILLIPS       CLEAR     65  62  91 SW3       29.92R
TOMAHAWK         N/A     61  58  91 CALM      29.94R
MEDFORD        CLEAR     60  58  93 S3        29.95R
MERRILL        CLEAR     64  59  82 CALM      29.94R
$$

WIZ029-030-035-036-043>047-200300-
CENTRAL WISCONSIN

CITY           SKY/WX    TMP DP  RH WIND       PRES   REMARKS
WAUSAU         CLEAR     68  60  75 CALM      29.93R
MOSINEE        CLEAR     64  59  82 CALM      29.96R
MARSHFIELD     CLEAR     66  61  84 SW5       29.94R
STEVENS POINT  CLEAR     62  60  92 CALM      29.95R
WAUPACA        CLEAR     68  61  77 CALM      29.94R
WAUTOMA        CLEAR     65  62  90 CALM      29.95R
WISC RAPIDS    CLEAR     64  61  90 CALM      29.95R
CAMP DOUGLAS   CLEAR     61  60  96 CALM      29.94R
$$

WIZ011>013-019>022-031-037>040-048>050-200300-
NORTHEAST WISCONSIN

CITY           SKY/WX    TMP DP  RH WIND       PRES   REMARKS
ANTIGO         CLEAR     61  58  90 SW5       29.95R
SHAWANO        CLEAR     67  62  83 CALM      29.92R
OCONTO         CLEAR     65  62  90 CALM      29.90R
STURGEON BAY   CLEAR     70  62  76 SW6       29.92R
GREEN BAY      CLEAR     66  64  93 SW3       29.92R
MANITOWOC      CLEAR     72  61  68 SW6       29.93R
APPLETON       CLEAR     72  55  56 SW7       29.93R
CLINTONVILLE   CLEAR     68  59  73 CALM      29.92R
OSHKOSH        CLEAR     70  61  73 S3        29.94R
$$

WIZ032>034-041-042-053>061-200300-
SOUTHWEST WISCONSIN

CITY           SKY/WX    TMP DP  RH WIND       PRES   REMARKS
LA CROSSE      CLEAR     72  63  73 SE3       29.92R
SPARTA         CLEAR     63  61  94 CALM      29.95R
VIROQUA        CLEAR     70  59  68 CALM      29.96R
BOSCOBEL       CLEAR     67  64  90 CALM      29.95R
PRAIRIE DU CHI CLEAR     67  61  81 E3        29.94R
PLATTEVILLE    CLEAR     68  64  88 SE6       29.96S
$$

WIZ056-057-062-063-064-067-068-200300-
SOUTH CENTRAL WISCONSIN

CITY           SKY/WX    TMP DP  RH WIND       PRES   REMARKS
REEDSBURG      CLEAR     67  62  82 CALM      29.95R
BARABOO/DELLS  CLEAR     66  60  82 CALM      29.95R
LONE ROCK      CLEAR     65  63  93 CALM      29.94R
MINERAL POINT  CLEAR     72  61  68 S3        29.97R
MADISON        CLEAR     71  62  73 CALM      29.95R
MIDDLETON      CLEAR     68  64  87 CALM      29.97R
WATERTOWN      CLEAR     67  64  91 CALM      29.96R
MONROE         CLEAR     72  61  68 S5        29.97R
JANESVILLE     CLEAR     72  64  78 CALM      29.96R
$$

WIZ051-052-058>065-066-070>072-200300-
SOUTHEAST WISCONSIN

CITY           SKY/WX    TMP DP  RH WIND       PRES   REMARKS
MILWAUKEE      CLEAR     75  61  61 SW5       29.96R
WAUKESHA       CLEAR     68  59  73 SW5       29.98R
MILWAUKEE/TIMM CLEAR     72  63  73 CALM      29.97R
RACINE         CLEAR     68  62  81 S3        29.98R
KENOSHA        CLEAR     69  60  73 S6        29.97R
FOND DU LAC    CLEAR     69  62  78 S5        29.95R
SHEBOYGAN      CLEAR     67  64  90 S3        29.95R
WEST BEND      CLEAR     66  63  88 CALM      29.97R
JUNEAU         CLEAR     68  62  79 CALM      29.97R
$$

LSZ147-162-200300-
LAKE SUPERIOR

STATION/POSITION TIME  TEMP    WIND        PRES    WAVE
                       AIR SEA DIR/SP/G            HT/PER
                 (UTC) (F)     (DEG/KT/KT) (MB)    (FT/S)
W MID LAKE BUOY  0150   65 60  220/  8/ 10 1010.0R   1/ 3
DEVILS ISLAND    0200   73     200/  9/ 11 1010.4R
SAXON HARBOR     0140   68     190/  3/  4 1010.8R
$$

LMZ867-665-643>646-200300-
LAKE MICHIGAN

STATION/POSITION TIME  TEMP    WIND        PRES    WAVE
                       AIR SEA DIR/SP/G            HT/PER
                 (UTC) (F)     (DEG/KT/KT) (MB)    (FT/S)
S GREEN BAY BUOY 0200   73 71  230/  6/  8 1012.6
N MID LAKE BUOY  0150   69 67  200/ 12/ 14 1012.0R   2/ 4
NORTHPORT PIER   0140   72     210/  3/  6 1011.9R
KEWAUNEE LAKESHO 0154   71     300/  2/  4 1012.3R
SHEBOYGAN LAKESH 0200   72     220/  9/  9 1013.5R
PORT WASHINGTON  0130   73     270/  3/  4 1014.9R
ATWATER BUOY     0109   75 71  240/  4/  6 1014.3R
MILWAUKEE LAKESH 0200   77     230/  5/  5   N/A
S MID LAKE BUOY  0150   72 72  170/  8/  8 1014.5R   1
KENOSHA   LAKESH 0200   71     190/  6/  7 1014.6
$$

TC  - TEMPERATURE IN CELSIUS
VSB - VISIBILITY IN STATUTE MILES
WCI - WIND CHILL INDEX
HX  - HEAT INDEX





USA.gov is the U.S. government's official web portal to all federal, state and local government web resources and services.